Home > Weather > Kuopio > Past weeks

Flag for Finland Past Weather in Kuopio, Finland — Yesterday and Last 2 Weeks

Now
61 °F

Lots of rain. More clouds than sun.


Feels Like: 61 °F
Forecast: 49 / 58 °F
Wind: 17 mph from Northeast

Location: Kuopio Airport

Current Time: May 25, 2016 at 8:05:45 PM

Latest Report: May 25, 2016 at 7:20 PM


Visibility: 4 mi

Pressure: 29.86 "Hg

Humidity: 88%

Dew Point: 57 °F

Location of KuopioLocation

Past Weather in Kuopio — Graph

°F

Kuopio Temperature Yesterday

Maximum temperature yesterday: 75 °F (at 3:50 PM)
Minimum temperature yesterday: 55 °F (at 4:20 AM)
Average temperature yesterday: 66 °F

High & Low Weather Summary for the Past Weeks

 TemperatureHumidityPressure
High75 °F (May 24, 3:50 PM)100% (May 12, 12:50 AM)30.09 "Hg (May 12, 12:50 AM)
Low36 °F (May 12, 3:20 AM)29% (May 13, 6:20 PM)29.62 "Hg (May 15, 12:20 AM)
Average54 °F67%29.86 "Hg
* Reported May 10 7:20 PM — May 25 7:20 PM, Kuopio, Weather by CustomWeather, © 2016

Note: Actual official high and low records may vary slightly from our data, if they occured in-between our weather recording intervals... More about our weather records

Advertising

Kuopio Weather History for the Previous 24 Hours

Scroll right to see more
 ConditionsComfort  
Time TempWeatherWind HumidityBarometerVisibility
7:20 PM
Wed, May 25
61 °FLots of rain. More clouds than sun.17 mph88%29.86 "Hg4 mi
6:20 PM68 °FScattered showers. Partly sunny.8 mph69%29.86 "HgN/A
5:50 PM68 °FSunny.5 mph64%29.86 "Hg10 mi
5:20 PM68 °FScattered showers. More clouds than sun.7 mph69%29.86 "HgN/A
4:50 PM70 °FSunny.8 mph60%29.86 "Hg10 mi
4:20 PM70 °FLight rain. Partly sunny.8 mph57%29.86 "HgN/A
3:50 PM72 °FScattered clouds.7 mph57%29.86 "HgN/A
3:20 PM72 °FPartly sunny.8 mph57%29.86 "HgN/A
2:50 PM72 °FScattered clouds.10 mph61%29.89 "HgN/A
2:20 PM72 °FPassing clouds.8 mph57%29.89 "HgN/A
1:50 PM70 °FPassing clouds.8 mph64%29.89 "HgN/A
1:20 PM70 °FPassing clouds.9 mph60%29.89 "HgN/A
12:50 PM68 °FPassing clouds.9 mph69%29.92 "HgN/A
11:50 AM66 °FPassing clouds.8 mph68%29.92 "HgN/A
10:50 AM64 °FSunny.9 mph73%29.92 "Hg10 mi
10:20 AM64 °FSunny.8 mph73%29.92 "Hg10 mi
9:50 AM63 °FSunny.8 mph83%29.92 "Hg10 mi
9:20 AM63 °FSunny.8 mph83%29.92 "Hg10 mi
8:50 AM61 °FSunny.8 mph83%29.92 "Hg10 mi
8:20 AM61 °FSunny.9 mph83%29.92 "Hg10 mi
7:50 AM59 °FSunny.5 mph88%29.92 "Hg10 mi
7:20 AM59 °FSunny.7 mph88%29.92 "Hg10 mi
6:50 AM59 °FSunny.7 mph88%29.92 "Hg10 mi
6:20 AM57 °FSunny.5 mph88%29.92 "Hg10 mi
5:50 AM57 °FSunny.2 mph88%29.92 "Hg10 mi
5:20 AM57 °FSunny.1 mph88%29.92 "Hg10 mi
4:50 AM55 °FSunny.No wind94%29.95 "Hg10 mi
4:20 AM55 °FClear.3 mph88%29.95 "Hg10 mi
3:50 AM57 °FClear.3 mph88%29.95 "Hg10 mi
3:20 AM55 °FClear.7 mph88%29.95 "Hg10 mi
2:50 AM57 °FClear.6 mph88%29.95 "Hg10 mi
2:20 AM57 °FClear.8 mph88%29.95 "Hg10 mi
1:50 AM59 °FClear.7 mph77%29.95 "Hg10 mi
1:20 AM59 °FClear.7 mph82%29.95 "Hg10 mi
12:50 AM59 °FClear.6 mph77%29.95 "Hg10 mi
12:20 AM63 °FClear.6 mph68%29.95 "Hg10 mi
11:50 PM
Tue, May 24
63 °FClear.2 mph68%29.95 "Hg10 mi
11:20 PM63 °FSunny.5 mph68%29.95 "Hg10 mi
10:50 PM64 °FSunny.2 mph73%29.95 "Hg10 mi
10:20 PM66 °FSunny.2 mph73%29.95 "Hg10 mi
9:50 PM68 °FMild.2 mph56%29.95 "HgN/A
9:20 PM70 °FSunny.2 mph57%29.95 "Hg10 mi
8:50 PM72 °FSunny.5 mph50%29.95 "Hg10 mi
8:20 PM72 °FSunny.3 mph50%29.95 "Hg10 mi
Weather by CustomWeather, © 2016

See weather overviewHow to use our weather pages